Regional Weather Roundup
Issued by NWS

Home | Current Version | Previous Version | Text Only | Print | Product List | Glossary Off
Versions: 1 2 3 4 5 6 7 8 9 10 11 12 13 14 15 16 17 18 19 20 21 22 23 24 25 26 27 28 29 30 31 32 33 34 35 36 37 38 39 40 41 42 43 44 45 46

000
ASUS45 KBOU 181810
RWRCO

WEATHER ROUNDUP FOR COLORADO
NATIONAL WEATHER SERVICE PUEBLO CO
1200 PM MDT WED APR 18 2018

NOTE: "FAIR" INDICATES FEW OR NO CLOUDS BELOW 12000 FEET WITH NO
SIGNIFICANT WEATHER AND/OR OBSTRUCTIONS TO VISIBILITY.

COZ001>005-013-030-031-181900-
...NORTHWEST COLORADO...

CITY           SKY/WX    TMP DP  RH WIND       PRES   REMARKS
CRAIG          SUNNY     39  16  39 VRB3      30.31F
HAYDEN         SUNNY     38  15  39 E6        30.33F
MEEKER         SUNNY     42  11  28 NE7       30.29F
RABBIT EARS PA NOT AVBL
STEAMBOAT SPGS FAIR      35  16  46 SE5       30.31F WCI  30
WALDEN         FAIR      36   3  25 W7        30.28F
$$

COZ006>008-011-181900-
...WEST CENTRAL VALLEYS...

CITY           SKY/WX    TMP DP  RH WIND       PRES   REMARKS
GRAND JUNCTION SUNNY     49  14  24 E6        30.27F
MONTROSE       SUNNY     46   8  21 NW8       30.28F
EAGLE          SUNNY     39   7  26 VRB3      30.33F
RIFLE          SUNNY     45  19  35 NE6       30.30F
DELTA          NOT AVBL
NUCLA          FAIR      48   1  14 CALM      30.26F
$$

COZ017>023-064>068-181900-
...SOUTHWEST COLORADO...

CITY           SKY/WX    TMP DP  RH WIND       PRES   REMARKS
DURANGO        SUNNY     47   0  14 VRB7G17   30.25S
CORTEZ         SUNNY     51   0  12 SW12G22   30.24S
PAGOSA SPRINGS FAIR      46  -6  11 S7        30.26R
TELLURIDE      SUNNY     43  -7  12 W7        30.24F
WOLF CREEK PAS SUNNY     36   0  21 CALM      30.35S
$$

COZ009-010-012-014-032>034-037-058>063-181900-
...CENTRAL COLORADO...

CITY           SKY/WX    TMP DP  RH WIND       PRES   REMARKS
ASPEN          SUNNY     39  -3  17 E6        30.26F
BUENA VISTA    FAIR      41  -3  15 SE6       30.27F
COPPER MTN     NOT AVBL
BERTHOUD PASS  FAIR      12   1  62 W12G21    30.27R WCI  -2
COTTONWOOD PAS SUNNY     41   3  20 E8G16     30.28S
GUNNISON       SUNNY     40  -5  14 VRB3      30.28F
KREMMLING      SUNNY     43   9  24 W5        30.31F
LEADVILLE      SUNNY     29   2  31 CALM      30.27R
MONARCH PASS   NOT AVBL
SALIDA         FAIR      45  -6  12 E6        30.34F
SUNLIGHT       SUNNY     25  10  54 CALM      30.33R
WILKERSON PASS SUNNY     32  -9  16 W3        30.31R
$$

COZ069>075-181900-
...SAN LUIS VALLEY/SANGRE DE CRISTO MOUNTAINS...

CITY           SKY/WX    TMP DP  RH WIND       PRES   REMARKS
ALAMOSA        SUNNY     43  -7  12 MISG      30.28F
DEL NORTE      FAIR      42   4  20 E9        30.28S
LA VETA PASS   SUNNY     37  -6  15 SW10G18   30.40S
SAGUACHE       NOT AVBL
$$

COZ035-036-038>040-181900-
...NORTHERN COLORADO FRONT RANGE...

CITY           SKY/WX    TMP DP  RH WIND       PRES   REMARKS
DENVER INTL AP MOSUNNY   49  10  20 NW15G23   30.26S
DMNS CITY PARK NOT AVBL
AURORA         MOSUNNY   49   6  17 NE12      30.26S
FRONT RANGE AP SUNNY     50   9  18 NW10G21   30.28R
ERIE MUNI ARPT FAIR      49   1  14 E8        30.31S
BOULDER MUN AP FAIR      52  10  19 SE7       30.24S
CENTENNIAL     MOSUNNY   46   7  20 VRB3      30.25S
BROOMFIELD     SUNNY     48   7  18 E9G16     30.26R
LOVELAND       SUNNY     50  10  20 CALM      30.26R
LONGMONT       FAIR      55   8  15 SE6       30.26F
$$

COZ041-046-047-076>085-087-088-181900-
...PIKES PEAK/PALMER DIVIDE AND SOUTHERN FOOTHILLS...

CITY           SKY/WX    TMP DP  RH WIND       PRES   REMARKS
COLO. SPRINGS  SUNNY     49  -1  12 VRB6      30.25F
A. F. ACADEMY  SUNNY     48  -4  11 CALM      30.24S
SCHRIEVER AFB  NOT AVBL
CHEYENNE MTN   NOT AVBL
ELLICOTT         N/A    N/A N/A N/A N6        30.25S
FALCON         FAIR      47  -4  11 N5        30.27F
FORT CARSON    SUNNY     50  -7   9 S5        30.25S
LIMON          SUNNY     50   7  17 NW24G38   30.26R
MONUMENT HILL  SUNNY     41   1  19 NW7       30.28S
CANON CITY     FAIR      54   1  12 W5        30.23F
WALSENBURG     FAIR      54   1  12 E12       30.27S
TRINIDAD       SUNNY     50  -4  10 VRB3      30.27S
$$

COZ042>045-048>051-090-091-181900-
...NORTHEAST COLORADO...

CITY           SKY/WX    TMP DP  RH WIND       PRES   REMARKS
GREELEY ARPT   SUNNY     52  12  20 N18G28    30.25F
AKRON          SUNNY     51  18  27 N28G40    30.23S
BURLINGTON     SUNNY     54  21  27 N25G38    30.22R
WRAY           FAIR      55  23  28 N26G35    30.21S
YUMA           NOT AVBL
STERLING       FAIR      54  21  28 N23G37    30.22S
HOLYOKE        FAIR      55  27  33 N30G40    30.20R
FORT MORGAN    FAIR      54   8  16 N22G30    30.26S
$$

COZ086-089-092>099-181900-
...SOUTHEAST COLORADO...

CITY           SKY/WX    TMP DP  RH WIND       PRES   REMARKS
PUEBLO         SUNNY     56   2  11 VRB7      30.25S
LA JUNTA       SUNNY     56   3  11 NW10G29   30.27S
LAMAR          SUNNY     59  10  14 N18G29    30.23S
SPRINGFIELD      N/A     56   8  14 N30G40    30.24S
$$





USA.gov is the U.S. government's official web portal to all federal, state and local government web resources and services.